User: anonymous   Login
Location: Cypress Hills Dark-Sky Preserve - CHICO
(49.6176°N, 110.2634°W)
Time: 20:39:07
(UTC-07:00)
Language:

SPOT 5 - Orbit

View from above orbital plane
View from above orbital plane
View from above satellite
View from above satellite

Ground track
Ground track

The orbit data is extracted from the following two-line orbital elements,

1 27421U 02021A   16042.88791329  .00000227  00000-0  61923-4 0  9997
2 27421  98.4758  97.7333 0136202  31.6027 329.3254 14.51760020714381
Epoch (UTC): 11 February 2016 21:18:35
Eccentricity: 0.0136202
inclination: 98.4758°
perigee height: 623 km
apogee height: 816 km
right ascension of ascending node: 97.7333°
argument of perigee: 31.6027°
revolutions per day: 14.51760020
mean anomaly at epoch: 329.3254°
orbit number at epoch: 71438

The dashed part of the orbit path shows where the satellite is in the earth's shadow,  

DLR